Tracking 30109 objects as of 12-Dec-2024
HD Live streaming from Space Station
objects crossing your sky now

STARLINK-31615

Track STARLINK-31615 now!
10-day predictions
STARLINK-31615 is classified as:


NORAD ID: 59413
Int'l Code: 2024-064R
Perigee: 449.5 km
Apogee: 452.8 km
Inclination: 43.0 °
Period: 93.5 minutes
Semi major axis: 6822 km
RCS: Unknown
Launch date: April 5, 2024
Source: United States (US)
Launch site: AIR FORCE EASTERN TEST RANGE (AFETR)
Your satellite tracking list
Your tracking list is empty




NASA's NSSDC Master Catalog

Two Line Element Set (TLE):
1 59413U 24064R   24346.60024323  .00002120  00000-0  58011-4 0  9991
2 59413  43.0033 100.8481 0002416 287.1055  72.9537 15.40700360 39865
Source of the keplerian elements: AFSPC